Simultaneous Nadir Overpasses (SNOs) Predictions

Prediction of SNOs between METOP-A and TERRA Satellite Orbit:

Table of predicted SNOs for the next 14.0 days since TLE Epoch: 1/26/2016
Index Date (METOP-A) Time (METOP-A) Lat,Lon (METOP-A) SZA (METOP-A ) Date (TERRA) Time (TERRA) Lat,Lon (TERRA) SZA (TERRA ) Distance(km) Time Diff (sec)
1 01/27/2016 18:49:29 81.29, -55.42 102.04 01/27/2016 18:50:33 81.30, -55.57 102.05 2.54 64
2 01/27/2016 19:40:09 -81.29, 112.07 77.96 01/27/2016 19:40:00 -81.29, 111.96 77.98 1.92 9
3 01/30/2016 14:23:52 81.29, 10.83 101.26 01/30/2016 14:24:48 81.29, 10.70 101.27 2.16 56
4 01/30/2016 15:14:31 -81.30, 178.73 78.69 01/30/2016 15:14:14 -81.30, 178.63 78.70 1.66 17
5 02/02/2016 09:58:14 81.29, 77.43 100.49 02/02/2016 09:59:02 81.29, 77.27 100.49 2.72 48
6 02/
